[[{"header":{"parameterUnit":"m.s-1","parameterCategory":1,"la1":30.2991,"la2":30.254,"lo1":-89.0895,"lo2":-89.0444,"dy":0.0017,"dx":0.0017,"nx":28,"ny":28,"refTime":"2023-10-20T21:00:00:Z","depth":0,"parameterNumber":2,"parameterNumberName":"U-component_of_WINDS"},"data":[0,0,0,0,0,0,0,0,0,0,0,0,0,0,0,0,0,0,0,0,0,0,0,0,0,0,0,0,0,0,0,0,0,0,0,0,0,0,0,0,0,0,0,0,0,0,0,0,0,0,0,0,0,0,0,0,0,0,-1.3061,-1.306,0,-1.3003,-1.3002,-1.3001,-1.2941,-1.294,-1.294,-1.2939,-1.2877,-1.2876,-1.2875,0,0,0,0,0,0,0,0,0,0,0,0,0,-1.312,-1.3119,-1.3061,-1.306,-1.306,-1.3003,-1.3002,-1.3001,-1.2941,-1.294,-1.2939,-1.2939,-1.2877,-1.2876,-1.2875,0,0,0,0,0,0,0,0,0,0,0,0,0,-1.3081,-1.3119,-1.3061,-1.3023,-1.3019,-1.3003,-1.3002,-1.3001,-1.2942,-1.294,-1.2939,-1.2938,-1.2878,-1.2876,-1.2875,-1.2891,0,0,-1.2871,-1.287,0,0,0,0,0,0,0,0,-1.3083,-1.3079,-1.3029,-1.3026,-1.3021,-1.2978,-1.3,-1.2964,-1.2942,-1.2971,-1.2939,-1.2937,-1.2911,-1.2907,-1.2899,-1.2888,-1.2885,-1.2871,-1.287,-1.2869,-1.2869,0,0,0,0,0,0,0,-1.3086,-1.3081,-1.3038,-1.3029,-1.3024,-1.3008,-1.3002,-1.2993,-1.2949,-1.2968,-1.2964,-1.2958,-1.2909,-1.29,-1.2897,-1.2884,-1.2871,-1.287,-1.2869,-1.2868,-1.2883,-1.2884,0,0,0,0,0,0,-1.3095,-1.3084,-1.304,-1.3036,-1.305,-1.3008,-1.3001,-1.2993,-1.2949,-1.2941,-1.2959,-1.2955,-1.2903,-1.2899,-1.2895,-1.2909,-1.2869,-1.2868,-1.2867,-1.2882,-1.2883,-1.2885,0,0,0,0,0,0,-1.3096,-1.3091,-1.3042,-1.3059,-1.3051,-1.3009,-1.3001,-1.2993,-1.2984,-1.2942,-1.2933,-1.2958,-1.2902,-1.2896,-1.2892,-1.2906,-1.2867,-1.2866,-1.288,-1.2882,-1.2884,-1.294,0,0,0,0,0,0,-1.3098,-1.3092,-1.3098,-1.3059,-1.3051,-1.3042,-1.3001,-1.2992,-1.2982,-1.2977,-1.2939,-1.2931,-1.2901,-1.2895,-1.2891,-1.2904,-1.2865,-1.2879,-1.2881,-1.2883,-1.2937,-1.2944,-1.2949,0,0,0,0,0,-1.31,-1.3116,-1.3099,-1.3094,-1.3057,-1.3042,-1.3037,-1.3002,-1.2983,-1.2989,-1.2962,-1.2932,-1.2906,-1.2895,-1.289,-1.2903,-1.2878,-1.2881,-1.2883,-1.2934,-1.2942,-1.2949,0,0,0,0,0,0,-1.3157,-1.311,-1.3091,-1.3094,-1.3073,-1.3032,-1.3038,-1.3013,-1.2995,-1.2991,-1.2948,-1.294,-1.294,-1.2921,-1.291,-1.2916,-1.2888,-1.289,-1.2928,-1.2935,-1.2942,-1.2945,-1.2864,0,0,0,0,0,-1.317,-1.3163,-1.3122,-1.3129,-1.312,-1.3081,-1.3073,-1.3048,-1.3024,-1.3014,-1.2987,-1.2964,-1.295,-1.2942,-1.2927,-1.2934,-1.2924,-1.2941,-1.2947,-1.2953,-1.2954,-1.2955,-1.2962,-1.2893,-1.2893,-1.2893,0,0,-1.3197,-1.317,-1.3168,-1.314,-1.312,-1.3113,-1.3074,-1.3067,-1.3061,-1.3013,-1.3007,-1.2987,-1.2958,-1.2959,-1.2959,-1.2943,-1.2971,-1.2956,-1.2961,-1.2959,-1.2959,-1.2965,-1.2971,-1.2895,-1.2895,-1.2895,0,0,-1.3241,-1.3221,-1.3224,-1.3206,-1.3177,-1.3151,-1.3152,-1.3116,-1.31,-1.3094,-1.3058,-1.3049,-1.3027,-1.3008,-1.2995,-1.3033,-1.3005,-1.303,-1.3062,-1.3064,-1.307,-1.3074,-1.3086,-1.3091,-1.3032,-1.3032,-1.3032,0,-1.3278,-1.3265,-1.3229,-1.3225,-1.3213,-1.3171,-1.3173,-1.3157,-1.3125,-1.3117,-1.3101,-1.3072,-1.305,-1.3046,-1.3055,-1.3047,-1.3045,-1.3033,-1.3072,-1.3076,-1.308,-1.3091,-1.3096,-1.3035,-1.3035,-1.3034,-1.3034,0,-1.3311,-1.3303,-1.3309,-1.328,-1.3269,-1.3268,-1.3231,-1.3225,-1.3201,-1.3177,-1.3171,-1.3143,-1.3121,-1.3119,-1.3095,-1.3111,-1.3103,-1.308,-1.3051,-1.309,-1.3099,-1.3104,-1.3039,-1.3038,-1.3037,-1.3037,0,0,-1.3388,-1.3339,-1.3342,-1.3328,-1.3293,-1.3286,-1.3283,-1.3263,-1.3257,-1.3237,-1.3233,-1.3215,-1.3194,-1.318,-1.3154,-1.3156,-1.3186,-1.3132,-1.3131,-1.3142,-1.3201,-1.3217,-1.3222,-1.3168,-1.3169,-1.317,-1.3202,0,-1.3426,-1.3418,-1.3386,-1.3388,-1.338,-1.3339,-1.3337,-1.3315,-1.3293,-1.3282,-1.3257,-1.3245,-1.3218,-1.3209,-1.321,-1.3183,-1.3197,-1.318,-1.3163,-1.3163,-1.317,-1.3228,-1.3245,-1.3277,-1.3206,-1.3207,-1.3207,0,-1.3468,-1.345,-1.3452,-1.3417,-1.3412,-1.3411,-1.3389,-1.338,-1.3354,-1.3337,-1.3322,-1.3294,-1.3288,-1.3262,-1.3252,-1.3242,-1.3233,-1.3219,-1.3219,-1.3215,-1.3186,-1.3223,-1.3287,-1.3291,-1.3213,-1.3213,-1.3212,0,-1.3522,-1.3499,-1.3497,-1.3486,-1.3446,-1.3446,-1.3429,-1.3402,-1.3392,-1.3373,-1.3366,-1.3347,-1.3336,-1.3321,-1.3288,-1.3272,-1.3282,-1.3253,-1.3267,-1.3268,-1.3269,-1.3269,-1.333,-1.3266,-1.3266,-1.3266,-1.3266,0,-1.3566,-1.3568,-1.3521,-1.3519,-1.352,-1.3483,-1.3485,-1.3464,-1.3441,-1.3434,-1.3398,-1.3392,-1.3349,-1.3339,-1.3313,-1.3308,-1.3304,-1.329,-1.3282,-1.3292,-1.3293,-1.3284,-1.328,-1.3268,-1.3267,-1.3267,-1.3267,0,-1.3627,-1.3595,-1.359,-1.3552,-1.3543,-1.3545,-1.3513,-1.3509,-1.3485,-1.3477,-1.3473,-1.3435,-1.342,-1.3386,-1.3362,-1.3345,-1.3346,-1.3334,-1.3355,-1.335,-1.3365,-1.3364,-1.3421,-1.3426,-1.3361,-1.3362,-1.3362,0,-1.3656,-1.3657,-1.362,-1.3613,-1.3598,-1.3587,-1.3577,-1.354,-1.3531,-1.3501,-1.3501,-1.3484,-1.3468,-1.3447,-1.3416,-1.3398,-1.3384,-1.3405,-1.338,-1.339,-1.3382,-1.3382,-1.3381,-1.341,-1.3411,-1.3412,-1.3412,0,-1.3711,-1.3696,-1.3682,-1.3663,-1.3652,-1.3635,-1.3616,-1.3613,-1.3571,-1.3562,-1.3547,-1.3535,-1.3511,-1.3494,-1.3471,-1.3452,-1.3425,-1.3421,-1.3422,-1.3431,-1.3443,-1.3435,-1.3368,-1.3419,-1.3418,-1.3418,-1.3417,-1.3417,-1.3756,-1.3754,-1.3728,-1.3714,-1.3696,-1.368,-1.3674,-1.365,-1.3637,-1.3615,-1.3594,-1.3581,-1.3555,-1.3521,-1.3505,-1.3493,-1.3479,-1.3482,-1.3483,-1.3484,-1.3487,-1.3446,-1.3489,-1.3489,-1.3488,-1.3488,-1.3488,0,-1.3808,-1.3789,-1.3777,-1.3752,-1.3741,-1.3718,-1.3695,-1.3687,-1.3676,-1.3655,-1.364,-1.3622,-1.3606,-1.3574,-1.3555,-1.3552,-1.3539,-1.3547,-1.3546,-1.3542,-1.3501,-1.3501,-1.3558,-1.3558,-1.3558,-1.3558,-1.3558,-1.3558,-1.3834,-1.3829,-1.3811,-1.3797,-1.3778,-1.3765,-1.3755,-1.3739,-1.3721,-1.3703,-1.3689,-1.367,-1.3644,-1.3622,-1.3605,-1.3597,-1.359,-1.3603,-1.359,-1.3552,-1.3545,-1.3539,-1.3538,-1.3602,-1.3603,-1.3632,-1.3632,-1.3632]},{"header":{"parameterUnit":"m.s-1","parameterCategory":1,"la1":30.2991,"la2":30.254,"lo1":-89.0895,"lo2":-89.0444,"dy":0.0017,"dx":0.0017,"nx":28,"ny":28,"refTime":"2023-10-20T21:00:00:Z","depth":0,"parameterNumber":3,"parameterNumberName":"V-component_of_WINDS"},"data":[0,0,0,0,0,0,0,0,0,0,0,0,0,0,0,0,0,0,0,0,0,0,0,0,0,0,0,0,0,0,0,0,0,0,0,0,0,0,0,0,0,0,0,0,0,0,0,0,0,0,0,0,0,0,0,0,0,0,1.5587,1.5587,0,1.5617,1.5617,1.5617,1.5619,1.5618,1.5618,1.5618,1.5647,1.5648,1.5649,0,0,0,0,0,0,0,0,0,0,0,0,0,1.5533,1.5534,1.5587,1.5587,1.5588,1.5617,1.5617,1.5618,1.5619,1.5618,1.5618,1.5617,1.5647,1.5648,1.5649,0,0,0,0,0,0,0,0,0,0,0,0,0,1.5559,1.5534,1.5587,1.5592,1.5593,1.5617,1.5617,1.5618,1.5619,1.5618,1.5618,1.5617,1.5646,1.5648,1.5649,1.567,0,0,1.5655,1.5655,0,0,0,0,0,0,0,0,1.5557,1.5561,1.5591,1.5592,1.5592,1.5614,1.5609,1.5635,1.5619,1.5609,1.5618,1.5617,1.5636,1.5639,1.5645,1.5672,1.5673,1.5655,1.5656,1.5656,1.5657,0,0,0,0,0,0,0,1.5555,1.5559,1.5599,1.5591,1.5592,1.5593,1.5596,1.5614,1.5625,1.561,1.561,1.5613,1.5637,1.5644,1.5646,1.5673,1.5655,1.5656,1.5657,1.5658,1.5722,1.5723,0,0,0,0,0,0,1.5553,1.5558,1.5598,1.56,1.5573,1.5595,1.5598,1.5607,1.5625,1.5627,1.5614,1.5613,1.5641,1.5644,1.5647,1.5675,1.5656,1.5658,1.5659,1.5721,1.5722,1.5723,0,0,0,0,0,0,1.5551,1.5556,1.5597,1.5579,1.5584,1.5596,1.5606,1.5608,1.5615,1.5628,1.563,1.5619,1.5641,1.5645,1.5665,1.5676,1.5659,1.566,1.572,1.5722,1.5723,1.5729,0,0,0,0,0,0,1.555,1.5556,1.5563,1.5579,1.5585,1.5614,1.5607,1.5609,1.5618,1.5618,1.5633,1.5635,1.5641,1.5663,1.5667,1.5678,1.5662,1.572,1.5721,1.5722,1.5728,1.573,1.5732,0,0,0,0,0,1.5548,1.5563,1.5563,1.5568,1.5595,1.5614,1.5618,1.5624,1.5619,1.5627,1.5636,1.5635,1.5674,1.5665,1.567,1.5681,1.5719,1.5721,1.5722,1.5727,1.573,1.5732,0,0,0,0,0,0,1.5546,1.5565,1.5566,1.5586,1.5599,1.5615,1.5625,1.5626,1.564,1.5639,1.5646,1.5649,1.5671,1.5678,1.5667,1.5704,1.5696,1.5699,1.5698,1.5701,1.5703,1.5701,1.5663,0,0,0,0,0,1.5549,1.5563,1.5579,1.5595,1.5602,1.5612,1.5621,1.5625,1.5638,1.5643,1.5654,1.5666,1.5682,1.5692,1.5707,1.5729,1.5734,1.574,1.5742,1.5744,1.5746,1.5762,1.5765,1.5728,1.5728,1.5728,0,0,1.5553,1.5565,1.5573,1.5595,1.5606,1.5622,1.5617,1.5633,1.5645,1.5646,1.5667,1.5675,1.569,1.5713,1.5723,1.5719,1.5758,1.5746,1.5747,1.5748,1.5764,1.5767,1.577,1.5729,1.5729,1.5729,0,0,1.5569,1.5579,1.5596,1.5607,1.5623,1.5631,1.5635,1.5651,1.5657,1.5678,1.568,1.5695,1.5721,1.5732,1.5742,1.5767,1.5767,1.5771,1.5782,1.5797,1.58,1.5803,1.5814,1.5817,1.5773,1.5773,1.5773,0,1.5573,1.5596,1.5604,1.5621,1.5631,1.5635,1.5652,1.5662,1.5683,1.569,1.5686,1.5721,1.5731,1.5758,1.5764,1.5771,1.5777,1.5769,1.5799,1.5802,1.5804,1.5815,1.5819,1.5774,1.5774,1.5774,1.5774,0,1.5601,1.5617,1.5629,1.565,1.5661,1.5678,1.569,1.5701,1.5705,1.5713,1.5736,1.5749,1.5768,1.5775,1.5777,1.5803,1.5801,1.5798,1.579,1.5808,1.5818,1.5822,1.5775,1.5774,1.5774,1.5774,0,0,1.5614,1.5642,1.5646,1.5657,1.5677,1.569,1.5709,1.5728,1.5739,1.5753,1.577,1.5794,1.5793,1.5803,1.5808,1.5821,1.5843,1.5817,1.5818,1.5823,1.5875,1.5877,1.5882,1.5844,1.5844,1.5845,1.5874,0,1.5634,1.5667,1.5676,1.5704,1.5721,1.5726,1.5743,1.5757,1.5767,1.5783,1.5793,1.581,1.5806,1.5813,1.5826,1.5837,1.5854,1.5835,1.586,1.5861,1.5857,1.5886,1.5889,1.5915,1.5878,1.5878,1.5879,0,1.566,1.5678,1.5708,1.5729,1.5736,1.5751,1.5771,1.5786,1.5804,1.581,1.5824,1.5829,1.585,1.5841,1.5871,1.5859,1.587,1.5877,1.5878,1.5881,1.5871,1.5891,1.5923,1.5928,1.5885,1.5884,1.5884,0,1.5669,1.57,1.5723,1.5732,1.5757,1.5767,1.5778,1.5796,1.5808,1.5826,1.5835,1.5854,1.5865,1.5881,1.5892,1.5884,1.5922,1.5913,1.5928,1.5928,1.5936,1.5935,1.5971,1.5941,1.5941,1.5941,1.5941,0,1.569,1.5709,1.5728,1.5742,1.5764,1.5775,1.5797,1.5808,1.5824,1.5842,1.5847,1.5863,1.5876,1.5894,1.5903,1.5928,1.5932,1.5939,1.5941,1.5939,1.5938,1.5946,1.5945,1.5942,1.5942,1.5942,1.5942,0,1.5704,1.5717,1.5743,1.5765,1.5772,1.5787,1.5807,1.5822,1.5832,1.5854,1.586,1.5877,1.5899,1.5912,1.5939,1.5945,1.5974,1.5974,1.5968,1.5969,1.5984,1.5983,1.6027,1.6034,1.5998,1.5999,1.5999,0,1.5716,1.5731,1.5757,1.5769,1.5781,1.58,1.5814,1.5826,1.584,1.5864,1.5876,1.59,1.5918,1.5954,1.5969,1.5991,1.5993,1.6007,1.5996,1.5995,1.5995,1.5995,1.5997,1.6009,1.6009,1.6009,1.601,0,1.5738,1.5745,1.5764,1.5787,1.5804,1.5822,1.584,1.585,1.5866,1.5881,1.5905,1.592,1.595,1.5974,1.5998,1.6009,1.6013,1.6013,1.6018,1.6016,1.6013,1.6017,1.5974,1.6012,1.6012,1.6012,1.6012,1.6011,1.5752,1.5767,1.5788,1.5811,1.5826,1.5844,1.586,1.5874,1.5894,1.592,1.5927,1.5952,1.5973,1.6006,1.6019,1.604,1.6037,1.6044,1.6045,1.6047,1.6049,1.601,1.6044,1.6044,1.6044,1.6044,1.6044,0,1.5776,1.579,1.5811,1.5838,1.5856,1.5859,1.588,1.5895,1.5918,1.5938,1.5957,1.5986,1.601,1.6029,1.6053,1.6067,1.6069,1.6073,1.6073,1.6076,1.6049,1.6043,1.6071,1.6071,1.6071,1.6071,1.6071,1.6071,1.579,1.5816,1.5826,1.5861,1.5876,1.5902,1.5914,1.5932,1.5948,1.598,1.6001,1.6013,1.6033,1.606,1.6082,1.6087,1.6097,1.6101,1.6106,1.608,1.6077,1.6074,1.6069,1.6102,1.6102,1.6131,1.6132,1.6132]}]]